Location: Carter Cabin
(41.0271°N, 122.9339°W)
Time: 06:57:14
(UTC+00:00)

KORONAS-FOTON - Visible Passes

Search period start: 13 July 2024 00:00
Search period end: 23 July 2024 00:00
Orbit: 474 x 497 km, 82.4° (Epoch: 12 July)

Date Brightness Start Highest point End Pass type
(mag) Time Alt. Az. Time Alt. Az. Time Alt. Az.
13 Jul 3.6 12:09:21 10° NNW 12:12:55 64° W 12:16:28 10° S visible
14 Jul 3.8 11:44:54 10° N 11:48:30 74° E 11:52:05 10° SSE visible
15 Jul 4.8 11:20:36 10° N 11:24:04 43° E 11:27:29 10° SSE visible
16 Jul 5.7 10:56:27 10° NNE 10:59:32 26° ENE 11:02:36 10° SE visible
17 Jul 6.4 10:32:32 10° NNE 10:34:58 17° ENE 10:37:22 10° ESE visible
17 Jul 4.8 12:07:02 10° NNW 12:10:03 26° W 12:13:04 10° SSW visible
18 Jul 6.7 10:09:21 10° NE 10:10:19 11° ENE 10:11:17 10° E visible
18 Jul 4.1 11:42:14 10° NNW 11:45:39 42° W 11:48:35 13° SSW visible
19 Jul 3.5 11:17:37 10° NNW 11:21:12 73° W 11:23:33 20° S visible
20 Jul 3.9 10:53:06 10° N 10:56:41 64° E 10:58:34 26° SSE visible
21 Jul 4.9 10:28:45 10° N 10:32:08 37° ENE 10:33:37 25° SE visible
21 Jul 5.8 12:05:34 10° WNW 12:06:48 11° W 12:07:57 10° WSW visible
22 Jul 5.7 10:04:33 10° NNE 10:07:30 23° ENE 10:08:42 20° ESE visible
22 Jul 5.2 11:39:53 10° NW 11:42:25 18° W 11:43:03 18° WSW visible
